Weather in Foggia

Italy     41°27′59″N   15°32′30″E
temp.,
°C
wind,
m/s
gust,
m/s
humid.,
%
clouds,
%
prec.,
mm/h
press.,
hPa
HPBL,
m
17 october, sun
sun1723:00+13wnw3677100 0.0 1018139
02:00+13wnw2376100 0.0 101852
05:00+14wnw2675100 0.0 1017201
08:00+14nw257497 0.0 1018229
11:00+17nw446848 0.1 1019676
14:00+18nw656477 0.4 1019983
17:00+17nnw556532 0.1 1019894
20:00+15nw367834 0.1 1020185
18 october, mon
mon1823:00+14wnw348346 0.0 1021125
02:00+14wnw358295 0.0 1022166
05:00+14nw3680100 0.0 1022217
08:00+14nw3580100 0.0 1022191
11:00+18nnw346682 0.0 1023742
14:00+20nnw435433 0.0 10231220
17:00+18nnw665982 0.0 1023785
20:00+15nw4776100 0.0 1025290
19 october, tue
tue1923:00+15wnw478041 0.0 1026223
02:00+13wnw36840 0.0 1026127
05:00+13wnw36870 0.0 1027120
08:00+13wnw358416 0.0 1028113
11:00+18nw34630 0.0 1028722
14:00+21nnw334422 0.0 10271123
17:00+20nnw33446 0.0 1026708
20:00+15nw01655 0.0 102712
20 october, wed
wed2023:00+14w116925 0.0 102811
02:00+14s0070100 0.0 102810
05:00+14sse116865 0.0 102710
08:00+13sse116885 0.0 102712
11:00+19se12495 0.0 1027494
14:00+23wsw12325 0.0 10251376
17:00+23wsw56340 0.0 1023983
20:00+17se34590 0.0 102480
21 october, thu
thu2123:00+16s23670 0.0 102446
02:00+14ssw22720 0.0 102327
05:00+13s22780 0.0 102223
08:00+13s22790 0.0 102238
11:00+20sw46524 0.0 10211126
14:00+23wsw774523 0.0 10191717
17:00+22wsw68505 0.0 10181102
20:00+18sse12645 0.0 101817